Weather History for Soldotna, AK

Change the Weather History Date:

Monday, November 19, 2012

  Actual Average Record
Temperature  
Mean Temperature 6 °F -  
Max Temperature 15 °F 27 °F 48 °F (1967)
Min Temperature -2 °F 12 °F -18 °F (2011)
Degree Days  
Heating Degree Days 58    
Moisture  
Dew Point 1 °F    
Average Humidity 80    
Maximum Humidity 100    
Minimum Humidity 67    
Precipitation  
Precipitation 0.00 in - - ()
Sea Level Pressure  
Sea Level Pressure 29.43 in    
Wind  
Wind Speed 5 mph (East)    
Max Wind Speed 10 mph    
Max Gust Speed -    
Visibility 10 miles    
Events      
Averages and records for this station are not official NWS values.
T = Trace of Precipitation, MM = Missing Value Source: NWS Daily Summary

Daily Weather History Graph

Daily Weather History Graph

Search for Another Location

Airport:

Trip Planner

Search our weather history database for the weather conditions in past years. The results will help you decide how hot, cold, wet, or windy it might be!

Date:

Astronomy

Nov. 19, 2012 Rise Set
Actual Time 9:17 AM AKST 4:21 PM AKST
Civil Twilight 8:25 AM AKST 5:13 PM AKST
Nautical Twilight 7:31 AM AKST 6:06 PM AKST
Astronomical Twilight 6:41 AM AKST 6:57 PM AKST
Moon 1:42 PM AKST (11/19) 11:50 PM AKST (11/19)
Length of Visible Light 8h 47m
Length of Day
7h 04m
Waxing Crescent, 42% of the Moon is Illuminated
Nov 19
Waxing Crescent
Nov 20
First Quarter
Nov 28
Full
Dec 6
Last Quarter
Dec 12
New

Hourly Weather History & Observations

Time (AKST) Temp. Windchill Dew Point Humidity Pressure Visibility Wind Dir Wind Speed Gust Speed Precip Events Conditions
12:16 AM 8.6 °F -1.3 °F 3.2 °F 79% 29.33 in 10.0 mi East 5.8 mph - N/A   Partly Cloudy
12:36 AM 8.6 °F -2.6 °F 3.2 °F 79% 29.34 in 10.0 mi East 6.9 mph - N/A   Partly Cloudy
12:56 AM 8.6 °F -1.3 °F 1.4 °F 73% 29.34 in 10.0 mi East 5.8 mph - N/A   Clear
1:16 AM 10.4 °F 0.8 °F 5.0 °F 79% 29.34 in 10.0 mi East 5.8 mph - N/A   Clear
1:36 AM 8.6 °F -2.6 °F 3.2 °F 79% 29.35 in 10.0 mi East 6.9 mph - N/A   Clear
1:56 AM 8.6 °F -3.7 °F -0.4 °F 67% 29.35 in 10.0 mi ESE 8.1 mph - N/A   Clear
2:16 AM 8.6 °F -3.7 °F 3.2 °F 79% 29.36 in 10.0 mi ESE 8.1 mph - N/A   Clear
2:36 AM 8.6 °F -3.7 °F 3.2 °F 79% 29.36 in 10.0 mi East 8.1 mph - N/A   Clear
2:56 AM 8.6 °F -2.6 °F 3.2 °F 79% 29.36 in 10.0 mi ESE 6.9 mph - N/A   Clear
3:16 AM 6.8 °F -4.8 °F 1.4 °F 79% 29.37 in 10.0 mi ESE 6.9 mph - N/A   Clear
3:36 AM 8.6 °F -1.3 °F 1.4 °F 73% 29.38 in 10.0 mi East 5.8 mph - N/A   Clear
3:56 AM 10.4 °F -1.5 °F 3.2 °F 73% 29.38 in 10.0 mi ESE 8.1 mph - N/A   Clear
4:16 AM 8.6 °F 0.1 °F 1.4 °F 73% 29.39 in 10.0 mi East 4.6 mph - N/A   Clear
4:36 AM 6.8 °F -4.8 °F 1.4 °F 79% 29.39 in 10.0 mi ESE 6.9 mph - N/A   Clear
4:56 AM 6.8 °F -3.5 °F 1.4 °F 79% 29.39 in 10.0 mi East 5.8 mph - N/A   Clear
5:16 AM 6.8 °F -3.5 °F 1.4 °F 79% 29.39 in 10.0 mi East 5.8 mph - N/A   Clear
5:36 AM 6.8 °F -3.5 °F 1.4 °F 79% 29.40 in 10.0 mi East 5.8 mph - N/A   Clear
5:56 AM 3.2 °F -7.8 °F -0.4 °F 85% 29.40 in 10.0 mi East 5.8 mph - N/A   Clear
6:16 AM 3.2 °F -6.2 °F -0.4 °F 85% 29.40 in 10.0 mi East 4.6 mph - N/A   Clear
6:36 AM 3.2 °F -7.8 °F 1.4 °F 92% 29.41 in 10.0 mi East 5.8 mph - N/A   Clear
6:56 AM 3.2 °F -6.2 °F 1.4 °F 92% 29.41 in 10.0 mi East 4.6 mph - N/A   Clear
7:16 AM 3.2 °F -6.2 °F -2.2 °F 78% 29.42 in 10.0 mi East 4.6 mph - N/A   Clear
7:36 AM 3.2 °F -4.2 °F -0.4 °F 85% 29.42 in 10.0 mi East 3.5 mph - N/A   Clear
7:56 AM 1.4 °F -13.5 °F -2.2 °F 85% 29.42 in 10.0 mi East 9.2 mph - N/A   Clear
8:16 AM 3.2 °F -7.8 °F -0.4 °F 85% 29.42 in 10.0 mi East 5.8 mph - N/A   Clear
8:36 AM 3.2 °F -9.1 °F -0.4 °F 85% 29.42 in 10.0 mi ESE 6.9 mph - N/A   Clear
8:56 AM 3.2 °F -11.3 °F -0.4 °F 85% 29.41 in 10.0 mi East 9.2 mph - N/A   Clear
9:16 AM 3.2 °F -6.2 °F 1.4 °F 92% 29.42 in 10.0 mi East 4.6 mph - N/A   Clear
9:36 AM 5.0 °F -5.6 °F 1.4 °F 85% 29.42 in 10.0 mi East 5.8 mph - N/A   Clear
9:56 AM 5.0 °F -6.9 °F 1.4 °F 85% 29.42 in 10.0 mi East 6.9 mph - N/A   Clear
10:16 AM 5.0 °F -6.9 °F -0.4 °F 78% 29.43 in 10.0 mi East 6.9 mph - N/A   Clear
10:36 AM 6.8 °F -3.5 °F 1.4 °F 79% 29.43 in 10.0 mi East 5.8 mph - N/A   Clear
10:56 AM 6.8 °F -4.8 °F 1.4 °F 79% 29.43 in 10.0 mi East 6.9 mph - N/A   Clear
11:16 AM 6.8 °F -0.1 °F 3.2 °F 85% 29.43 in 10.0 mi ENE 3.5 mph - N/A   Clear
11:36 AM 8.6 °F 2.0 °F 3.2 °F 79% 29.44 in 10.0 mi East 3.5 mph - N/A   Clear
11:56 AM 8.6 °F 0.1 °F 1.4 °F 73% 29.43 in 10.0 mi East 4.6 mph - N/A   Clear
12:16 PM 10.4 °F -1.5 °F 5.0 °F 79% 29.43 in 10.0 mi ESE 8.1 mph - N/A   Clear
12:36 PM 12.2 °F 1.7 °F 6.8 °F 79% 29.44 in 10.0 mi East 6.9 mph - N/A   Clear
12:56 PM 14.0 °F 1.2 °F 6.8 °F 73% 29.43 in 10.0 mi ESE 10.4 mph - N/A   Clear
1:16 PM 15.8 °F 3.4 °F 6.8 °F 68% 29.43 in 10.0 mi East 10.4 mph - N/A   Clear
1:36 PM 15.8 °F 6.1 °F 6.8 °F 68% 29.43 in 10.0 mi East 6.9 mph - N/A   Clear
1:56 PM 15.8 °F 8.6 °F 6.8 °F 68% 29.43 in 10.0 mi East 4.6 mph - N/A   Clear
2:16 PM 15.8 °F 8.6 °F 6.8 °F 68% 29.43 in 10.0 mi East 4.6 mph - N/A   Clear
2:36 PM 15.8 °F - 6.8 °F 68% 29.44 in 10.0 mi Calm Calm - N/A   Clear
2:56 PM 15.8 °F 10.2 °F 6.8 °F 68% 29.43 in 10.0 mi East 3.5 mph - N/A   Clear
3:16 PM 15.8 °F 8.6 °F 6.8 °F 68% 29.43 in 10.0 mi East 4.6 mph - N/A   Clear
3:36 PM 15.8 °F - 8.6 °F 73% 29.43 in 10.0 mi Calm Calm - N/A   Clear
3:56 PM 14.0 °F - 5.0 °F 67% 29.44 in 10.0 mi Calm Calm - N/A   Clear
4:16 PM 10.4 °F - 6.8 °F 85% 29.44 in 10.0 mi Calm Calm - N/A   Clear
4:36 PM 8.6 °F - 3.2 °F 79% 29.43 in 10.0 mi Calm Calm - N/A   Clear
4:56 PM 8.6 °F - 8.6 °F 100% 29.44 in 10.0 mi Calm Calm - N/A   Clear
5:16 PM 6.8 °F -2.0 °F 1.4 °F 79% 29.45 in 10.0 mi West 4.6 mph - N/A   Clear
5:36 PM 3.2 °F - -0.4 °F 85% 29.45 in 10.0 mi Calm Calm - N/A   Clear
5:56 PM 3.2 °F - -0.4 °F 85% 29.45 in 10.0 mi Calm Calm - N/A   Clear
6:16 PM 3.2 °F - -0.4 °F 85% 29.46 in 10.0 mi Calm Calm - N/A   Clear
6:36 PM 1.4 °F - -4.0 °F 78% 29.46 in 10.0 mi Calm Calm - N/A   Clear
6:56 PM 1.4 °F - -0.4 °F 92% 29.47 in 10.0 mi Calm Calm - N/A   Clear
7:16 PM 1.4 °F - -2.2 °F 85% 29.47 in 10.0 mi Calm Calm - N/A   Clear
7:36 PM -0.4 °F - -7.6 °F 72% 29.48 in 10.0 mi Calm Calm - N/A   Clear
7:56 PM -2.2 °F - -7.6 °F 78% 29.48 in 10.0 mi Calm Calm - N/A   Clear
8:16 PM -0.4 °F - -2.2 °F 92% 29.48 in 10.0 mi Calm Calm - N/A   Clear
8:36 PM -2.2 °F -10.4 °F -5.8 °F 85% 29.49 in 10.0 mi ENE 3.5 mph - N/A   Partly Cloudy
8:56 PM -2.2 °F - -2.2 °F 100% 29.49 in 10.0 mi Calm Calm - N/A   Scattered Clouds
9:16 PM -2.2 °F - -5.8 °F 85% 29.50 in 10.0 mi Calm Calm - N/A   Clear
9:36 PM -2.2 °F - -7.6 °F 78% 29.50 in 10.0 mi Calm Calm - N/A   Partly Cloudy
9:56 PM -2.2 °F - -5.8 °F 85% 29.50 in 10.0 mi Calm Calm - N/A   Partly Cloudy
10:16 PM -2.2 °F -12.5 °F -7.6 °F 78% 29.50 in 10.0 mi East 4.6 mph - N/A   Partly Cloudy
10:36 PM -2.2 °F -12.5 °F -4.0 °F 92% 29.50 in 10.0 mi ENE 4.6 mph - N/A   Clear
10:56 PM -2.2 °F -12.5 °F -9.4 °F 71% 29.51 in 10.0 mi ENE 4.6 mph - N/A   Clear
11:16 PM -2.2 °F -10.4 °F -5.8 °F 85% 29.52 in 10.0 mi East 3.5 mph - N/A   Clear
11:36 PM -2.2 °F -10.4 °F -2.2 °F 100% 29.52 in 10.0 mi ENE 3.5 mph - N/A   Clear
11:56 PM -0.4 °F -8.3 °F -4.0 °F 85% 29.53 in 10.0 mi ENE 3.5 mph - N/A   Clear